Tracking 31011 objects as of 12-Jul-2025
HD Live streaming from Space Station
objects crossing your sky now

STARLINK-6247

Track STARLINK-6247 now!
10-day predictions
STARLINK-6247 is classified as:


NORAD ID: 57086
Int'l Code: 2023-088AQ
Perigee: 565.1 km
Apogee: 567.4 km
Inclination: 43.0 °
Period: 95.8 minutes
Semi major axis: 6937 km
RCS: Unknown
Launch date: June 22, 2023
Source: United States (US)
Launch site: AIR FORCE WESTERN TEST RANGE (AFWTR)
Your satellite tracking list
Your tracking list is empty




NASA's NSSDC Master Catalog

Two Line Element Set (TLE):
1 57086U 23088AQ  25192.67607160 -.00000034  00000-0  12565-4 0  9990
2 57086  43.0061 324.1818 0001658 276.7427  83.3227 15.02537756114264
Source of the keplerian elements: AFSPC